Woodlawn, VA

3:10 AM EST on January 17, 2017 (GMT -0500)
Twin County

Weather History for KHLX - November, 2013

Change the Weather History Date:

Sunday, November 24, 2013

  Actual Average (KBLF) Record (KBLF)
Temperature  
Mean Temperature 24 °F -  
Max Temperature 30 °F 50 °F 72 °F (1973)
Min Temperature 19 °F 34 °F 7 °F (1970)
Degree Days  
Heating Degree Days 40    
Moisture  
Dew Point 4 °F    
Average Humidity 43    
Maximum Humidity 64    
Minimum Humidity 25    
Precipitation  
Precipitation 0.00 in - - ()
Sea Level Pressure  
Sea Level Pressure 30.33 in    
Wind  
Wind Speed 16 mph (NW)    
Max Wind Speed 25 mph    
Max Gust Speed 37 mph    
Visibility 10 miles    
Events Snow    
Averages and records for this station are not official NWS values.
T = Trace of Precipitation, MM = Missing Value Source: NWS Daily Summary

Daily Weather History Graph

Daily Weather History Graph

Search for Another Location

Airport or City:

Trip Planner

Search our weather history database for the weather conditions in past years. The results will help you decide how hot, cold, wet, or windy it might be!

Date:

Astronomy

Nov. 24, 2013 Rise Set
Actual Time 7:10 AM EST 5:09 PM EST
Civil Twilight 6:42 AM EST 5:37 PM EST
Nautical Twilight 6:10 AM EST 6:08 PM EST
Astronomical Twilight 5:39 AM EST 6:39 PM EST
Moon 11:28 PM EST (11/24) 12:02 PM EST (11/24)
Length of Visible Light 10h 54m
Length of Day
9h 58m
Waning Gibbous, 61% of the Moon is Illuminated
Nov 24
Waning Gibbous
Nov 25
Last Quarter
Dec 2
New
Dec 9
First Quarter
Dec 17
Full

Hourly Weather History & Observations

Time (EST) Temp. Windchill Dew Point Humidity Pressure Visibility Wind Dir Wind Speed Gust Speed Precip Events Conditions
12:15 AM 30.2 °F 19.3 °F 15.8 °F 55% 30.20 in 10.0 mi NW 15.0 mph 29.9 mph N/A   Mostly Cloudy
12:35 AM 28.4 °F 17.0 °F 15.8 °F 59% 30.20 in 10.0 mi NNW 15.0 mph - N/A   Overcast
12:55 AM 28.4 °F 15.1 °F 15.8 °F 59% 30.19 in 10.0 mi NW 20.7 mph 27.6 mph N/A Snow Light Snow
1:15 AM 28.4 °F 15.8 °F 15.8 °F 59% 30.19 in 10.0 mi NW 18.4 mph 29.9 mph N/A   Overcast
1:35 AM 28.4 °F 15.8 °F 15.8 °F 59% 30.19 in 10.0 mi NNW 18.4 mph 27.6 mph N/A   Overcast
1:55 AM 26.6 °F 11.7 °F 15.8 °F 64% 30.20 in 10.0 mi NW 24.2 mph 31.1 mph N/A Snow Light Snow
2:15 AM 26.6 °F 12.7 °F 14.0 °F 59% 30.20 in 10.0 mi NNW 20.7 mph 36.8 mph N/A   Overcast
2:35 AM 24.8 °F 11.1 °F 12.2 °F 59% 30.21 in 10.0 mi NW 18.4 mph 24.2 mph N/A   Mostly Cloudy
2:55 AM 24.8 °F 9.6 °F 10.4 °F 54% 30.22 in 10.0 mi NW 23.0 mph 32.2 mph N/A   Mostly Cloudy
3:15 AM 24.8 °F 12.9 °F 12.2 °F 59% 30.23 in 10.0 mi NNW 13.8 mph 23.0 mph N/A   Overcast
3:35 AM 24.8 °F 10.7 °F 12.2 °F 59% 30.22 in 10.0 mi NNW 19.6 mph 25.3 mph N/A   Overcast
3:55 AM 24.8 °F 10.7 °F 10.4 °F 54% 30.22 in 10.0 mi NNW 19.6 mph 34.5 mph N/A   Mostly Cloudy
4:15 AM 24.8 °F 9.0 °F 10.4 °F 54% 30.23 in 10.0 mi NW 25.3 mph 31.1 mph N/A   Mostly Cloudy
4:35 AM 23.0 °F 8.3 °F 10.4 °F 59% 30.24 in 10.0 mi NW 19.6 mph 26.5 mph N/A   Mostly Cloudy
4:55 AM 21.2 °F 7.8 °F 8.6 °F 58% 30.25 in 10.0 mi NW 15.0 mph 25.3 mph N/A   Scattered Clouds
5:15 AM 21.2 °F 8.3 °F 8.6 °F 58% 30.25 in 10.0 mi NNW 13.8 mph 23.0 mph N/A   Scattered Clouds
5:35 AM 21.2 °F 7.8 °F 6.8 °F 54% 30.27 in 10.0 mi NW 15.0 mph 24.2 mph N/A   Scattered Clouds
5:55 AM 21.2 °F 8.9 °F 6.8 °F 54% 30.27 in 10.0 mi NW 12.7 mph 26.5 mph N/A   Clear
6:15 AM 21.2 °F 8.9 °F 6.8 °F 54% 30.27 in 10.0 mi NW 12.7 mph - N/A   Clear
6:35 AM 21.2 °F 7.3 °F 8.6 °F 58% 30.28 in 10.0 mi NNW 16.1 mph 25.3 mph N/A   Clear
6:55 AM 21.2 °F 6.4 °F 8.6 °F 58% 30.29 in 10.0 mi NW 18.4 mph 25.3 mph N/A   Clear
7:15 AM 21.2 °F 7.8 °F 6.8 °F 54% 30.30 in 10.0 mi NW 15.0 mph 24.2 mph N/A   Clear
7:35 AM 21.2 °F 7.3 °F 8.6 °F 58% 30.31 in 10.0 mi NNW 16.1 mph 20.7 mph N/A   Clear
7:55 AM 21.2 °F 7.3 °F 8.6 °F 58% 30.32 in 10.0 mi NW 16.1 mph 24.2 mph N/A   Clear
8:15 AM 21.2 °F 6.8 °F 8.6 °F 58% 30.32 in 10.0 mi NNW 17.3 mph 27.6 mph N/A   Clear
8:35 AM 21.2 °F 7.3 °F 3.2 °F 46% 30.34 in 10.0 mi NNW 16.1 mph 34.5 mph N/A   Clear
8:55 AM 21.2 °F 6.0 °F 1.4 °F 42% 30.35 in 10.0 mi NNW 19.6 mph 26.5 mph N/A   Clear
9:15 AM 21.2 °F 6.0 °F 1.4 °F 42% 30.35 in 10.0 mi NNW 19.6 mph 28.8 mph N/A   Clear
9:35 AM 21.2 °F 6.0 °F 1.4 °F 42% 30.37 in 10.0 mi NW 19.6 mph - N/A   Clear
9:55 AM 21.2 °F 5.6 °F 1.4 °F 42% 30.38 in 10.0 mi NW 20.7 mph 26.5 mph N/A   Clear
10:15 AM 21.2 °F 6.0 °F -2.2 °F 36% 30.39 in 10.0 mi NW 19.6 mph 27.6 mph N/A   Clear
10:35 AM 23.0 °F 9.2 °F -2.2 °F 33% 30.39 in 10.0 mi NW 17.3 mph 29.9 mph N/A   Clear
10:55 AM 24.8 °F 10.7 °F -2.2 °F 31% 30.39 in 10.0 mi NW 19.6 mph 26.5 mph N/A   Clear
11:15 AM 24.8 °F 11.1 °F -2.2 °F 31% 30.39 in 10.0 mi NW 18.4 mph 26.5 mph N/A   Clear
11:35 AM 24.8 °F 11.9 °F -2.2 °F 31% 30.37 in 10.0 mi WNW 16.1 mph 25.3 mph N/A   Clear
11:55 AM 24.8 °F 10.7 °F -2.2 °F 31% 30.36 in 10.0 mi WNW 19.6 mph 26.5 mph N/A   Clear
12:15 PM 26.6 °F 14.3 °F -0.4 °F 31% 30.36 in 10.0 mi NNW 16.1 mph 21.9 mph N/A   Clear
12:35 PM 24.8 °F 10.7 °F -2.2 °F 31% 30.36 in 10.0 mi NW 19.6 mph 26.5 mph N/A   Clear
12:55 PM 26.6 °F 13.4 °F -2.2 °F 29% 30.35 in 10.0 mi NNW 18.4 mph 27.6 mph N/A   Clear
1:15 PM 26.6 °F 12.7 °F -2.2 °F 29% 30.36 in 10.0 mi NW 20.7 mph 27.6 mph N/A   Clear
1:35 PM 26.6 °F 13.1 °F -2.2 °F 29% 30.35 in 10.0 mi NW 19.6 mph 25.3 mph N/A   Clear
1:55 PM 26.6 °F 14.3 °F -2.2 °F 29% 30.34 in 10.0 mi NNW 16.1 mph 24.2 mph N/A   Clear
2:15 PM 28.4 °F 15.8 °F -4.0 °F 25% 30.34 in 10.0 mi NW 18.4 mph - N/A   Clear
2:35 PM 28.4 °F 16.6 °F -4.0 °F 25% 30.34 in 10.0 mi NNW 16.1 mph 23.0 mph N/A   Clear
2:55 PM 28.4 °F 18.5 °F -2.2 °F 27% 30.35 in 10.0 mi NW 11.5 mph 20.7 mph N/A   Clear
3:15 PM 28.4 °F 19.7 °F -2.2 °F 27% 30.35 in 10.0 mi NW 9.2 mph - N/A   Clear
3:35 PM 28.4 °F 17.0 °F -2.2 °F 27% 30.35 in 10.0 mi NW 15.0 mph 19.6 mph N/A   Clear
3:55 PM 28.4 °F 17.5 °F -2.2 °F 27% 30.35 in 10.0 mi NNW 13.8 mph - N/A   Clear
4:15 PM 26.6 °F 14.7 °F -2.2 °F 29% 30.36 in 10.0 mi NW 15.0 mph 18.4 mph N/A   Clear
4:35 PM 26.6 °F 17.5 °F -4.0 °F 26% 30.36 in 10.0 mi NW 9.2 mph - N/A   Clear
4:55 PM 26.6 °F 15.7 °F -2.2 °F 29% 30.36 in 10.0 mi NW 12.7 mph 17.3 mph N/A   Clear
5:15 PM 26.6 °F 14.7 °F -2.2 °F 29% 30.36 in 10.0 mi NW 15.0 mph 20.7 mph N/A   Clear
5:35 PM 24.8 °F 14.6 °F -2.2 °F 31% 30.36 in 10.0 mi NW 10.4 mph - N/A   Clear
5:55 PM 24.8 °F 13.4 °F -2.2 °F 31% 30.38 in 10.0 mi NW 12.7 mph - N/A   Clear
6:15 PM 24.8 °F 14.6 °F -0.4 °F 34% 30.37 in 10.0 mi NW 10.4 mph - N/A   Clear
6:35 PM 24.8 °F 17.9 °F -0.4 °F 34% 30.38 in 10.0 mi NW 5.8 mph - N/A   Clear
6:55 PM 24.8 °F 16.9 °F -0.4 °F 34% 30.38 in 10.0 mi NW 6.9 mph - N/A   Clear
7:15 PM 24.8 °F 16.9 °F 1.4 °F 36% 30.39 in 10.0 mi WNW 6.9 mph - N/A   Clear
7:35 PM 23.0 °F 13.9 °F 1.4 °F 39% 30.39 in 10.0 mi NW 8.1 mph - N/A   Clear
7:55 PM 23.0 °F 13.9 °F 1.4 °F 39% 30.39 in 10.0 mi NNW 8.1 mph - N/A   Clear
8:15 PM 23.0 °F 15.8 °F 1.4 °F 39% 30.40 in 10.0 mi NNW 5.8 mph - N/A   Clear
8:35 PM 23.0 °F 17.0 °F 1.4 °F 39% 30.40 in 10.0 mi WNW 4.6 mph - N/A   Clear
8:55 PM 21.2 °F 12.6 °F 1.4 °F 42% 30.40 in 10.0 mi NW 6.9 mph - N/A   Clear
9:15 PM 21.2 °F - 3.2 °F 46% 30.41 in 10.0 mi Calm Calm - N/A   Clear
9:35 PM 21.2 °F - 1.4 °F 42% 30.41 in 10.0 mi Calm Calm - N/A   Clear
9:55 PM 21.2 °F 13.6 °F 1.4 °F 42% 30.42 in 10.0 mi NW 5.8 mph - N/A   Clear
10:15 PM 21.2 °F 13.6 °F 3.2 °F 46% 30.42 in 10.0 mi NNW 5.8 mph - N/A   Clear
10:35 PM 21.2 °F 16.4 °F 3.2 °F 46% 30.42 in 10.0 mi NW 3.5 mph - N/A   Clear
10:55 PM 21.2 °F - 5.0 °F 50% 30.43 in 10.0 mi Calm Calm - N/A   Clear
11:15 PM 21.2 °F 16.4 °F 5.0 °F 50% 30.43 in 10.0 mi West 3.5 mph - N/A   Clear
11:35 PM 19.4 °F - 5.0 °F 54% 30.42 in 10.0 mi Calm Calm - N/A   Clear
11:55 PM 19.4 °F - 6.8 °F 58% 30.42 in 10.0 mi Calm Calm - N/A   Clear